Weather History for Albany, NY

Change the Weather History Date:

Saturday, February 9, 2013

  Actual Average Record
Temperature  
Mean Temperature 15 °F 25 °F  
Max Temperature 26 °F 33 °F 57 °F (1925)
Min Temperature 4 °F 16 °F -20 °F (1934)
Degree Days  
Heating Degree Days 50 40  
Month to date heating degree days 395 370  
Since 1 July heating degree days 3871 4221  
Cooling Degree Days 0 0  
Month to date cooling degree days 0 0  
Year to date cooling degree days 0 0  
Moisture  
Dew Point 9 °F    
Average Humidity 66    
Maximum Humidity 96    
Minimum Humidity 36    
Precipitation  
Precipitation 0.26 in 0.08 in 1.37 in (1906)
Month to date precipitation 0.60 0.70  
Year to date precipitation 2.06 3.29  
Snow  
Snow 2.40 in 0.50 in 13.70 in (1906)
Month to date snowfall 6.8 4.3  
Since 1 July snowfall 26.4 38.4  
Snow Depth 6.00 in    
Sea Level Pressure  
Sea Level Pressure 30.10 in    
Wind  
Wind Speed 11 mph (North)    
Max Wind Speed 24 mph    
Max Gust Speed 31 mph    
Visibility 7 miles    
Events Fog , Snow    
T = Trace of Precipitation, MM = Missing Value Source: NWS Daily Summary

Daily Weather History Graph

Daily Weather History Graph

Search for Another Location

Airport:

Trip Planner

Search our weather history database for the weather conditions in past years. The results will help you decide how hot, cold, wet, or windy it might be!

Date:

Astronomy

Feb. 09, 2013 Rise Set
Actual Time 7:00 AM EST 5:19 PM EST
Civil Twilight 6:30 AM EST 5:48 PM EST
Nautical Twilight 5:57 AM EST 6:22 PM EST
Astronomical Twilight 5:24 AM EST 6:55 PM EST
Moon 6:09 AM EST (2/9) 4:59 PM EST (2/9)
Length of Visible Light 11h 18m
Length of Day
10h 19m
Waning Crescent, 0% of the Moon is Illuminated
Feb 9
Waning Crescent
Feb 10
New
Feb 17
First Quarter
Feb 25
Full
Mar 4
Last Quarter

Hourly Weather History & Observations

Time (EST) Temp. Windchill Dew Point Humidity Pressure Visibility Wind Dir Wind Speed Gust Speed Precip Events Conditions
12:13 AM 23.0 °F 12.4 °F 19.4 °F 86% 29.86 in 0.5 mi NNW 10.4 mph - 0.02 in Snow Light Snow
12:51 AM 23.0 °F 12.4 °F 21.2 °F 93% 29.87 in 0.5 mi NNW 10.4 mph - N/A Snow Light Snow
1:51 AM 23.0 °F 11.7 °F 21.0 °F 92% 29.89 in 0.5 mi NNW 11.5 mph - 0.08 in Fog , Snow Snow
2:51 AM 23.0 °F 12.4 °F 19.9 °F 88% 29.90 in 0.5 mi North 10.4 mph - 0.08 in Snow Light Snow
3:28 AM 21.2 °F 10.1 °F 17.6 °F 86% 29.90 in 0.5 mi North 10.4 mph 20.7 mph 0.02 in Snow Light Snow
3:51 AM 21.9 °F 10.4 °F 17.1 °F 82% 29.91 in 0.5 mi North 11.5 mph 20.7 mph 0.02 in Snow Light Snow
4:27 AM 21.2 °F 8.3 °F 15.8 °F 80% 29.92 in 1.5 mi North 13.8 mph 20.7 mph 0.01 in Snow Light Snow
4:51 AM 21.0 °F 7.1 °F 16.0 °F 81% 29.94 in 1.5 mi North 16.1 mph - 0.01 in Snow Light Snow
5:51 AM 19.0 °F 4.5 °F 15.1 °F 85% 29.96 in 1.5 mi NNE 16.1 mph 21.9 mph 0.00 in Snow Light Snow
6:51 AM 18.0 °F 4.8 °F 12.9 °F 81% 29.98 in 1.5 mi NNE 12.7 mph - 0.00 in   Overcast
7:11 AM 17.6 °F 8.2 °F 12.2 °F 79% 29.99 in 10.0 mi North 6.9 mph 19.6 mph N/A   Overcast
7:51 AM 16.0 °F 6.3 °F 10.0 °F 77% 30.03 in 10.0 mi North 6.9 mph - N/A   Overcast
8:26 AM 15.8 °F 2.7 °F 8.6 °F 73% 30.04 in 10.0 mi North 11.5 mph - N/A   Overcast
8:51 AM 15.1 °F 1.1 °F 7.0 °F 70% 30.08 in 10.0 mi NNE 12.7 mph - N/A   Overcast
9:51 AM 16.0 °F 4.4 °F 7.0 °F 68% 30.11 in 10.0 mi North 9.2 mph - 0.00 in   Mostly Cloudy
10:23 AM 17.6 °F 6.4 °F 8.6 °F 68% 30.11 in 10.0 mi North 9.2 mph - N/A   Mostly Cloudy
10:51 AM 19.0 °F 7.5 °F 8.1 °F 62% 30.13 in 10.0 mi North 10.4 mph - N/A   Mostly Cloudy
11:51 AM 21.9 °F 9.2 °F 7.0 °F 53% 30.13 in 10.0 mi North 13.8 mph - N/A   Mostly Cloudy
12:11 PM 21.2 °F 8.3 °F 8.6 °F 58% 30.12 in 10.0 mi WNW 13.8 mph - N/A   Mostly Cloudy
12:51 PM 24.1 °F 13.1 °F 8.1 °F 51% 30.14 in 10.0 mi NNW 11.5 mph - N/A   Mostly Cloudy
1:51 PM 25.0 °F 14.8 °F 3.0 °F 39% 30.14 in 10.0 mi North 10.4 mph - N/A   Scattered Clouds
2:51 PM 25.0 °F 10.9 °F 1.9 °F 37% 30.15 in 10.0 mi NW 19.6 mph 25.3 mph N/A   Partly Cloudy
3:51 PM 25.0 °F 11.7 °F 6.1 °F 45% 30.17 in 10.0 mi WNW 17.3 mph - N/A   Partly Cloudy
4:51 PM 23.0 °F 9.2 °F 6.1 °F 48% 30.20 in 10.0 mi WNW 17.3 mph 24.2 mph N/A   Partly Cloudy
5:51 PM 19.9 °F 6.7 °F 6.1 °F 55% 30.25 in 10.0 mi NNW 13.8 mph - N/A   Clear
6:51 PM 16.0 °F 2.9 °F -0.0 °F 49% 30.30 in 10.0 mi NNE 11.5 mph - N/A   Clear
7:51 PM 14.0 °F 2.9 °F -0.9 °F 52% 30.33 in 10.0 mi North 8.1 mph - N/A   Clear
8:51 PM 12.0 °F 2.7 °F -0.9 °F 56% 30.36 in 10.0 mi North 5.8 mph - N/A   Clear
9:51 PM 10.9 °F 1.4 °F -0.9 °F 59% 30.37 in 10.0 mi NNW 5.8 mph - N/A   Clear
10:51 PM 10.0 °F 3.6 °F -2.0 °F 58% 30.38 in 10.0 mi NNE 3.5 mph - N/A   Clear
11:51 PM 5.0 °F - -2.0 °F 73% 30.39 in 10.0 mi Calm Calm - N/A   Clear